Back to catalog

CZ-6A DEB

AliveSSO
NORAD 54527·DEBRIS·🇨🇳 China

Launched Nov 11, 2022 from Taiyuan Satellite Launch Center

Loading…

Next Passes (next 24 hours)

TLE

FreshSource: Space-Track

Epoch: Sep 14, 2026, 08:42 UTC

1 54527U 22151KF  26257.36303798  .00001592  00000-0  59769-3 0  9991
2 54527  98.7164 284.1643 0038397  67.6944 292.8304 14.32608276199718

Track CZ-6A DEB in real time with AllMySat

Download on the App Store